Ketchikan, AK

5:09 PM AKST on February 20, 2019 (GMT -0900)
Ketchikan International

Weather History for PAKT - January, 2019

Change the Weather History Date:

Tuesday, January 29, 2019

  Actual Average Record
Temperature  
Mean Temperature 36 °F -  
Max Temperature 39 °F 39 °F 51 °F (1992)
Min Temperature 33 °F 29 °F 6 °F (1969)
Degree Days  
Heating Degree Days 29    
Moisture  
Dew Point 33 °F    
Average Humidity 86    
Maximum Humidity 96    
Minimum Humidity 70    
Precipitation  
Precipitation 0.04 in - - ()
Sea Level Pressure  
Sea Level Pressure 30.07 in    
Wind  
Wind Speed 5 mph (SE)    
Max Wind Speed 9 mph    
Max Gust Speed -    
Visibility 9 miles    
Events Rain    
Averages and records for this station are not official NWS values.
T = Trace of Precipitation, MM = Missing Value Source: NWS Daily Summary

Daily Weather History Graph

Daily Weather History Graph

Search for Another Location

Airport or City:

Astronomy

Jan. 29, 2019 Rise Set
Actual Time 7:44 AM AKST 4:16 PM AKST
Civil Twilight 7:03 AM AKST 4:57 PM AKST
Nautical Twilight 6:18 AM AKST 5:41 PM AKST
Astronomical Twilight 5:36 AM AKST 6:24 PM AKST
Moon 2:36 AM AKST (1/29) 11:36 AM AKST (1/29)
Length of Visible Light 9h 53m
Length of Day
8h 31m
Waning Crescent, 30% of the Moon is Illuminated
Jan 29
Waning Crescent
Feb 4
New
Feb 12
First Quarter
Feb 19
Full
Feb 26
Last Quarter

Hourly Weather History & Observations

Time (AKST) Temp. Windchill Dew Point Humidity Pressure Visibility Wind Dir Wind Speed Gust Speed Precip Events Conditions
12:53 AM 33.1 °F 27.7 °F 30.0 °F 89% 30.20 in 10.0 mi SSE 5.8 mph - N/A   Clear
1:53 AM 34.0 °F 29.8 °F 30.9 °F 89% 30.19 in 10.0 mi South 4.6 mph - N/A   Partly Cloudy
2:53 AM 33.1 °F - 30.9 °F 92% 30.19 in 10.0 mi Calm Calm - N/A   Mostly Cloudy
3:53 AM 33.1 °F 30.0 °F 30.9 °F 92% 30.17 in 10.0 mi SE 3.5 mph - N/A   Overcast
4:53 AM 34.0 °F 28.0 °F 30.9 °F 89% 30.14 in 10.0 mi SE 6.9 mph - N/A   Mostly Cloudy
5:53 AM 35.1 °F 30.1 °F 32.0 °F 89% 30.13 in 10.0 mi SE 5.8 mph - N/A   Overcast
6:09 AM 34.0 °F 28.8 °F 32.0 °F 92% 30.12 in 10.0 mi ESE 5.8 mph - N/A   Overcast
6:53 AM 35.1 °F 30.1 °F 32.0 °F 89% 30.12 in 10.0 mi SE 5.8 mph - N/A   Overcast
7:53 AM 35.1 °F 27.9 °F 32.0 °F 89% 30.11 in 10.0 mi SE 9.2 mph - N/A   Overcast
8:53 AM 36.0 °F 30.3 °F 30.9 °F 82% 30.10 in 10.0 mi SE 6.9 mph - N/A   Overcast
9:53 AM 37.0 °F 31.0 °F 33.1 °F 86% 30.09 in 10.0 mi SE 8.1 mph - N/A   Overcast
10:53 AM 37.4 °F 32.8 °F 32.0 °F 81% 30.09 in 10.0 mi SE 5.8 mph - N/A   Overcast
11:53 AM 39.2 °F 37.0 °F 32.0 °F 75% 30.09 in 10.0 mi ESE 3.5 mph - N/A   Overcast
12:12 PM 39.2 °F 34.2 °F 30.2 °F 70% 30.07 in 10.0 mi SE 6.9 mph - N/A   Overcast
12:53 PM 39.2 °F 33.6 °F 30.2 °F 70% 30.07 in 10.0 mi ESE 8.1 mph - N/A   Overcast
1:53 PM 39.0 °F 35.7 °F 30.9 °F 73% 30.06 in 10.0 mi ESE 4.6 mph - N/A   Overcast
2:53 PM 37.4 °F 32.1 °F 32.0 °F 81% 30.05 in 10.0 mi East 6.9 mph - N/A Rain Light Rain
3:53 PM 37.0 °F - 34.0 °F 89% 30.04 in 10.0 mi Calm Calm - 0.01 in   Overcast
4:53 PM 37.0 °F - 34.0 °F 89% 30.01 in 10.0 mi Calm Calm - N/A   Overcast
5:53 PM 37.9 °F - 34.0 °F 86% 29.99 in 10.0 mi Calm Calm - N/A   Overcast
6:53 PM 37.9 °F 33.5 °F 35.1 °F 89% 29.97 in 10.0 mi ESE 5.8 mph - N/A   Overcast
7:53 PM 39.0 °F 33.4 °F 35.1 °F 86% 29.98 in 10.0 mi SE 8.1 mph - N/A   Overcast
8:53 PM 39.0 °F 34.0 °F 36.0 °F 89% 29.98 in 10.0 mi Variable 6.9 mph - N/A   Overcast
9:53 PM 39.0 °F 34.8 °F 37.0 °F 93% 29.97 in 4.0 mi South 5.8 mph - 0.00 in Rain Light Rain
10:53 PM 39.0 °F 34.0 °F 37.9 °F 96% 29.98 in 3.0 mi SSE 6.9 mph - 0.02 in Rain Light Rain
11:53 PM 39.0 °F 34.8 °F 37.9 °F 96% 29.97 in 8.0 mi South 5.8 mph - 0.01 in Rain Light Rain